ION SCV-010

导读

ION SCV-010是意大利D-Orbit公司研发的卫星运载飞船,于2023年4月15日发射。作为独立可控的卫星运输平台,它可单次发射将多颗客户卫星精准部署至不同轨道面,支持1U至16U立方体卫星及通用微卫星部署。完成主任务后,平台可拓展空间监视跟踪等任务,承载搭载载荷,开展技术验证,依托星载传感器实现目标识别跟踪,为太空态势感知提供支持。

Basic Information
目录编号:
56192
目录名称:
ION SCV-010
国际标识:
2023-054Q
轨道中心:
EARTH
卫星名称:
ION SCV-010
卫星全名:
--
卫星状态:
在轨 (已飞行1238 天)
发射日期:
2023-04-15 UTC
国别 :
意大利 (IT)
星等 :
--
Orbit Information
数据来源 国际轨道数据
星历时间: 2026-09-04T11:17:33+0800
11小时前
查看轨道信息
半长轴: 6858.728km
偏心率: 0.0010064
轨道倾角: 97.365°
近地点辐角 251.221°
升交点赤经 135.639°
平近点角 108.794°
近地点: 473.688km
远地点: 487.494km
周期: 94.216分钟
每日圈数: 15.284016
Detailed Information
使用方式:
暂无
2D Orbit Map
3D Orbit Map
Orbit Altitude Analysis Chart
Orbit Inclination Analysis Chart
Orbit Comprehensive Analysis Chart
View Comprehensive Chart
Conjunction Data List
Event ID Objects TCA Miss Dist (km) Collision Risk Probability Collision Risk Index (CRI) Action
CDM_260906-052405-619205-964021
2026-09-06T
05:24:21+0000
0.455 km
远距离
1.957969E-4 高风险 0.81
CDM_260905-011105-619205-654822
2026-09-05T
01:11:00+0000
1.014 km
极远距离
2.500545E-5 中风险 0.63
CDM_260906-054604-808005-619222
2026-09-06T
05:46:43+0000
1.142 km
极远距离
1.727855E-5 中风险 0.6
CDM_260903-020205-619205-688725
2026-09-03T
02:02:37+0000
1.034 km
极远距离
1.538419E-5 中风险 0.59
CDM_260904-185105-619205-629022
2026-09-04T
18:51:40+0000
1.359 km
极远距离
8.873899E-6 低风险 0.54
CDM_260905-081505-619206-185121
2026-09-05T
08:15:25+0000
1.768 km
极远距离
3.887441E-6 低风险 0.47
CDM_260905-090005-619206-633721
2026-09-05T
09:00:10+0000
2.140 km
极远距离
2.312862E-6 低风险 0.42
CDM_260904-053205-619206-228123
2026-09-04T
05:32:11+0000
2.219 km
极远距离
2.160235E-6 低风险 0.42
CDM_260904-115805-619206-660022
2026-09-04T
11:58:06+0000
1.870 km
极远距离
2.132438E-6 低风险 0.42
CDM_260906-044505-619205-733221
2026-09-06T
04:45:55+0000
2.250 km
极远距离
2.123526E-6 低风险 0.42